Tracking 19832 objects as of 25-Aug-2019
HD Live streaming from Space Station
objects crossing your sky now

FLOCK 1E 12


FLOCK 1E 12 is no longer on orbit
FLOCK 1E 12 is classified as:


NORAD ID: 40739
Int'l Code: 1998-067GR
Perigee: N/A
Apogee: N/A
Inclination: N/A
Period: N/A
Semi major axis: N/A
RCS: N/A
Launch date: November 20, 1998
Source: United States (US)
Launch site: TYURATAM MISSILE AND SPACE COMPLEX (TTMTR)
Decay date: 2016-08-09
aabbcc
Your satellite tracking list
Your tracking list is empty




NASA's NSSDC Master Catalog

Two Line Element Set (TLE):
1 40739U 98067GR  16222.49857937  .09461812  12449-4  18591-3 0  9990
2 40739  51.6131  94.9874 0018850 251.5887 111.1438 16.45332099 61458
Source of the keplerian elements: AFSPC